Regional Weather Roundup
Issued by NWS Upton, NY

Current Version | Previous Version | Text Only | Print | Product List | Glossary On
Versions: 1 2 3 4 5 6 7 8 9 10 11 12 13 14 15 16 17 18 19 20 21 22 23 24 25 26 27 28 29 30
000
ASUS41 KOKX 251205
RWROKX

REGIONAL WEATHER ROUNDUP
NATIONAL WEATHER SERVICE NEW YORK NY
800 AM EDT THU AUG 25 2016

NOTE: "FAIR" INDICATES FEW OR NO CLOUDS BELOW 12,000 FEET WITH NO
SIGNIFICANT WEATHER AND/OR OBSTRUCTIONS TO VISIBILITY.

NYZ071-072-176-178-NJZ106-104-251300-
NEW YORK CITY METRO AREA

CITY           SKY/WX    TMP DP  RH WIND       PRES   REMARKS
Central Park     N/A     72  64  78 MISG        N/A
LaGuardia APRT PTSUNNY   75  64  68 S8        30.12S
Kennedy INTL   PTSUNNY   72  67  84 SW10      30.15R
Newark/Liberty MOSUNNY   72  63  73 SW7       30.13S
Bronx Bot Gard   N/A     73  63  68 S3        30.16R
Wall St Helipt SUNNY     72  64  78 W6        30.14S
Teterboro      NOT AVBL
$$

NYZ177-179-078>081-251300-
LONG ISLAND NEW YORK

CITY           SKY/WX    TMP DP  RH WIND       PRES   REMARKS
Farmingdale    SUNNY     72  65  78 SW7       30.15R
MacArthur/ISP  MOSUNNY   73  65  75 SW8       30.14S
Shirley        SUNNY     72  65  78 SW5       30.15S
Riverhead      NOT AVBL
Westhampton    SUNNY     73  66  78 SW9       30.17S
Southampton      N/A     73  68  83 SW5       30.11S
Bridgehampton    N/A     68  66  94 S2        30.14S
East Hampton   FAIR      72  67  84 SW7       30.14S
Montauk          N/A     73  67  81 VRB6      30.16S
$$

NYZ052-065-067-251300-
HUDSON VALLEY

CITY           SKY/WX    TMP DP  RH WIND       PRES   REMARKS
White Plains   MOSUNNY   71  64  78 S3        30.13S
Newburgh       MOSUNNY   66  64  94 CALM      30.14R
Montgomery     SUNNY     67  64  90 CALM      30.12S
Poughkeepsie   SUNNY     69  63  81 SE3       30.11S
Albany         NOT AVBL
$$

NJZ001-105-106-008-010-013-015-019>022-104-251300-
NEW JERSEY

CITY           SKY/WX    TMP DP  RH WIND       PRES   REMARKS
Newark/Liberty MOSUNNY   72  63  73 SW7       30.13S
Teterboro      NOT AVBL
Caldwell       SUNNY     69  63  81 VRB5      30.14S
Morristown     MOSUNNY   68  64  88 CALM      30.14S
Somerville     MOSUNNY   65  62  90 CALM      30.12S
Linden         FAIR      71  63  74 CALM      30.15S
Sussex         SUNNY     64  63  96 CALM      30.13S
Abdover          N/A     67  64  90 CALM      30.13F
Trenton        MOSUNNY   69  64  84 S5        30.14R
Millville      SUNNY     72  69  90 VRB3      30.15S
Atlantic City  SUNNY     71  63  75 S7        30.15F
Wrightstown    MOSUNNY   68  63  85 S3        30.12S
Toms River     SUNNY     69  64  84 S6        30.15S
Belmar         MOSUNNY   69  63  81 S6        30.16S
$$

PAZ047>061-062-071-251300-
EASTERN PENNSYLVANIA

CITY           SKY/WX    TMP DP  RH WIND       PRES   REMARKS
Philadelphia   CLOUDY    72  61  68 S8        30.14R
Allentown      NOT AVBL
Scranton       MOSUNNY   71  63  75 CALM      30.09F
$$

CTZ002-004>006-009-010-012-RIZ004-006-007-MAZ004-011-015-251300-
SOUTHERN NEW ENGLAND
 IN CT

CITY           SKY/WX    TMP DP  RH WIND       PRES   REMARKS
Bradley INTL   NOT AVBL
Hartford       MOSUNNY   73  65  75 S7        30.12R
Danbury        SUNNY     68  63  84 CALM      30.15S
Wtrbury/Oxford MOSUNNY   66  61  82 SW3       30.16R
Bridgeport     SUNNY     74  65  73 SW10      30.13S
Meriden        SUNNY     70  64  81 S3        30.13S
New Haven      MOSUNNY   73  66  78 SW8       30.13S
Chester        FAIR      72  66  83 VRB3      30.15R
Groton         MOSUNNY   74  67  78 SW10      30.13S
Wilimantic     SUNNY     68  65  90 SW5       30.14S

 IN RI

CITY           SKY/WX    TMP DP  RH WIND       PRES   REMARKS
Providence     NOT AVBL
Block Island   SUNNY     72  68  87 SW13      30.16R
Westerly       SUNNY     73  66  78 SW8       30.15S
 IN MA

CITY           SKY/WX    TMP DP  RH WIND       PRES   REMARKS
Boston         MOSUNNY   72  66  81 SW12      30.10S
Worcester      SUNNY     67  62  84 SW16      30.12S
Westfield      SUNNY     67  65  93 S3        30.10F
Provincetown   SUNNY     71  68  90 S12       30.13S
Nantucket      SUNNY     71  66  84 S13       30.16S
$$

ANZ330-335-338-340-345-350-353-355-251300-
COASTAL MARINE OBSERVATIONS


STATION/POSITION TIME  SKY/WX   TEMP    WIND        PRES    VSBY  WAVE
                                AIR SEA DIR/SP/G                  HT/PER
                 (UTC)          (F)     (DEG/KT/KT) (MB)    (MI)  (FT/S)
NY HARB ENTRANCE 1050            72 74  230/ 14/ 16 1020.3          3/11
20S FIRE ISLAND  1050            74 74  240/ 12/ 14 1020.9          3/11
GREAT SOUTH BAY  1130            74 78  230/ 12/ 14   N/A
23 SSW MONTAUK P 1050            74 74  230/ 12/ 16 1021.3          3/10
15 E BARNEGAT LI 1100               75                N/A           3/11
HUDSON CANYON    1050            75 77              1021.6          2/10
KINGS POINT      1100            71 75              1020.2
EXECUTION ROCKS  1100            74     190/  8/ 12   N/A
CENTRAL LI SOUND 1100            72 74  220/ 12/ 14   N/A           2/ 3
EASTERN LI SOUND 1100            74 69  240/ 10/ 14   N/A
ROBBINS REEF     1100            70     240/  5/  7 1019.6
$$


>>>>>>>>>>>>>>>>>>>>>>>>>>>> KEY <<<<<<<<<<<<<<<<<<<<<<<<<<<
>                                                          <
>     SKY/WX - Sky Condition/Present Weather               <
>     TMP    - Temperature in Fahrenheit                   <
>     DP     - Dew Point in Fahrenheit                     <
>     RH     - Relative Humidity in Percent                <
>     WIND   - Direction (from) and Speed in MPH           <
>     PRES   - Mean Sea Level Pressure (inches of Hg)      <
>     WCI    - Wind Chill Index                            <
>     VSB    - VISIBILITY IN MILES                         <
>     HX     - HEAT INDEX                                  <
>     TC     - TEMPERATURE IN CELSIUS                      <
>     VRB    - VARIABLE WIND DIRECTION                     <
>                                                          <
>>>>>>>>>>>>>>>>>>>>>>>>>>>> KEY <<<<<<<<<<<<<<<<<<<<<<<<<<<




USA.gov is the U.S. government's official web portal to all federal, state and local government web resources and services.